Location: Fontevrault
(47.1823°N, 0.0493°E)
Time: 10:59:37
(UTC+00:00)

BREEZE-M DEB (TANK) - Pass Details

Date: 16 June 2021
Orbit: 322 x 14771 km, 49.5° (Epoch: 27 July)

Event Time Altitude Azimuth Distance (km) Brightness Sun altitude
Rises 20:34:35 0° 214° (SW) 2,071 5.7 -5.6°
Reaches altitude 10° 20:36:23 10° 197° (SSW) 1,252 4.4 -5.8°
Maximum altitude 20:38:22 24° 137° (SE) 863 3.2 -6.0°
Drops below altitude 10° 20:41:27 10° 79° (E) 1,981 5.3 -6.4°
Sets 20:45:19 0° 68° (ENE) 3,862 6.9 -6.9°
